Location: Blackwater Beach
(38.5801°N, 75.1577°W)
Time: 02:48:54
(UTC+00:00)

Cosmos 2297 Rocket - Pass Details

Date: 26 May 2026
Orbit: 838 x 842 km, 71.0° (Epoch: 9 June)

Event Time Altitude Azimuth Distance (km) Brightness Sun altitude
Exits shadow 03:34:36 - 240° (WSW) 3,178 5.1 -27.2°
Reaches altitude 10° 03:36:55 10° 252° (WSW) 2,450 4.6 -27.4°
Maximum altitude 03:41:20 23° 304° (NW) 1,699 4.3 -27.7°
Drops below altitude 10° 03:45:48 10° 357° (N) 2,462 5.5 -28.0°
Sets 03:48:46 0° 11° (NNE) 3,401 6.2 -28.1°
